Temp
65 66 64 66 55 50 39 39 44 43 44 44 44 41 37 35 36 39 49 49 49 48 52 52 57 70 73 73 74 74 75 75 76 75 75 75 75 75 75 74 74 74 75 75 75 75 74 73 73
62 67 63 58 46 42 33 40 37 41 45 47 43 43 36 32 41 42 43 49 50 49 51 52 61 69 72 72 72 73 73 73 74 74 75 75 74 74 74 74 74 75 76 75 75 74 73 73 72
63 63 54 46 41 36 33 34 37 38 45 46 40 41 38 34 42 43 48 49 49 50 50 51 61 66 70 70 71 72 72 72 72 72 72 72 72 72 73 73 73 74 74 74 74 73 72 72 72
59 55 52 41 33 29 29 36 39 37 44 45 42 33 41 46 44 47 49 49 47 49 49 51 58 63 66 68 68 69 69 70 70 70 69 69 69 69 70 70 71 71 71 72 72 72 72 71 71
55 53 42 35 28 28 32 35 40 35 37 39 44 33 36 45 49 49 47 49 48 48 49 50 55 59 62 65 65 66 66 66 66 66 66 66 66 66 67 67 68 68 68 69 69 69 69 70 70
51 49 40 33 28 29 32 33 35 33 36 37 38 36 36 47 46 48 49 48 51 50 49 49 50 52 58 60 62 63 63 63 63 63 63 63 63 63 64 65 65 66 66 66 66 66 66 66 66
44 42 35 32 29 29 28 34 29 31 31 33 38 34 38 41 47 49 50 51 51 52 51 48 48 47 49 55 58 59 60 60 60 60 60 60 59 60 60 62 63 64 64 64 64 64 64 64 64
49 43 35 32 30 24 30 31 32 30 29 40 40 29 31 39 47 48 50 50 50 51 52 49 52 48 45 45 50 55 56 56 57 57 56 56 56 56 58 58 60 61 62 62 62 62 62 62 62
48 36 28 29 30 25 31 28 31 34 32 34 36 35 38 42 46 45 44 47 48 49 51 52 49 52 53 50 49 47 52 53 53 52 54 53 51 52 52 55 57 57 58 59 60 60 60 59 59
37 30 27 31 31 29 30 29 29 29 29 30 33 37 40 40 41 40 40 40 45 46 49 51 51 50 51 53 50 50 50 49 48 48 48 49 49 49 50 50 52 53 53 55 56 56 56 55 56
36 28 31 30 32 32 28 27 31 29 26 29 29 31 35 36 36 36 39 40 42 48 49 50 51 51 50 49 48 47 47 46 47 46 45 46 46 46 46 46 46 46 48 47 48 49 49 50 52
30 33 34 33 34 33 28 30 27 28 27 31 31 32 32 32 33 33 34 38 41 44 49 50 51 51 49 48 48 48 47 46 45 45 45 46 44 44 44 43 43 44 44 43 44 44 46 47 48
31 31 32 33 33 31 31 28 27 28 31 32 32 32 32 32 32 33 34 37 38 42 45 49 50 50 50 49 48 47 46 46 46 46 46 44 42 41 42 42 42 42 42 42 43 43 43 44 45
34 33 33 33 32 32 30 28 31 30 33 33 33 32 32 33 32 33 35 34 36 39 42 47 48 49 49 48 47 46 46 46 45 45 45 44 42 41 40 40 40 40 40 40 41 40 40 41 42
36 31 32 33 33 31 36 28 26 33 36 34 35 35 35 35 36 34 35 35 37 39 42 45 48 48 48 47 46 45 45 45 43 43 43 42 41 41 40 39 39 38 39 39 40 39 40 40 41
37 33 26 36 36 37 35 19 31 36 34 33 36 35 36 36 35 36 37 38 39 40 41 44 48 47 47 47 46 46 44 42 41 40 41 41 40 40 38 37 37 37 38 38 38 37 37 38 38
30 24 27 30 37 34 32 21 32 38 35 33 36 36 35 35 36 37 37 38 39 41 42 42 45 45 46 46 46 45 44 42 42 42 40 40 40 39 37 37 37 37 37 36 36 36 35 35 36
26 24 27 24 30 31 27 26 31 34 34 33 35 35 35 37 38 39 39 41 41 42 43 44 45 45 46 45 45 44 43 43 40 40 40 40 39 39 37 36 36 36 36 35 35 34 35 34 34
28 26 24 25 33 29 26 25 28 31 31 30 32 32 34 36 39 40 41 42 42 42 42 43 43 43 43 42 40 38 37 38 38 39 40 39 39 38 36 35 35 34 34 33 35 34 33 33 34
30 26 24 29 32 30 25 26 29 30 30 31 31 31 33 35 36 37 37 39 41 41 41 42 42 42 41 40 38 39 38 38 38 40 39 39 39 39 40 36 34 34 33 33 33 32 30 30 32
27 26 25 26 30 28 26 25 26 30 31 33 33 34 34 34 35 36 37 36 36 37 39 41 42 42 41 42 41 40 40 39 38 39 39 40 40 39 39 37 35 34 34 32 31 31 29 28 29
27 30 31 30 24 14 27 12 24 26 28 30 32 31 32 34 36 35 36 36 35 36 38 39 40 40 42 41 39 37 35 34 36 36 36 37 38 37 37 36 35 34 33 31 31 33 30 29 27
29 32 31 29 22 18 21 9 22 24 26 30 32 33 34 35 35 34 35 37 37 37 36 36 38 39 40 39 38 35 35 34 35 35 35 35 36 37 37 36 35 33 32 31 31 30 30 29 28
33 30 29 26 21 7 14 15 20 22 27 28 35 35 36 35 36 36 37 36 36 36 36 36 37 38 38 38 38 36 35 35 34 34 34 34 34 34 36 36 34 33 33 31 31 30 30 29 29
30 24 8 11 8 11 18 12 25 29 29 32 34 36 36 36 36 35 34 33 33 34 34 35 35 36 37 37 36 36 35 35 34 34 33 33 32 33 34 34 33 32 33 32 32 31 30 30 28
26 22 13 7 10 13 19 12 29 31 33 33 34 36 36 35 36 35 36 35 33 34 33 34 35 34 35 35 35 35 35 34 34 34 33 32 32 33 34 34 33 33 33 32 31 30 30 30 29
24 19 23 4 -10 4 16 24 32 31 32 31 32 31 33 35 35 36 36 35 34 33 33 33 33 34 35 35 34 34 34 34 33 34 33 32 32 35 34 33 32 32 32 32 30 29 29 29 29
25 27 16 8 9 5 14 14 26 29 30 31 31 31 32 33 34 36 36 37 36 35 35 33 34 34 35 34 34 36 34 34 34 33 33 32 33 33 33 32 32 31 31 31 30 29 29 28 29
20 20 16 15 13 8 6 19 25 31 32 33 34 35 34 34 35 36 37 38 37 36 33 34 33 33 33 34 34 33 33 34 33 33 33 33 33 33 32 32 32 32 31 30 29 28 28 27 28
23 23 21 14 12 9 11 16 34 32 32 32 34 36 34 34 35 36 36 36 33 35 35 35 34 33 35 35 33 33 33 33 32 32 33 33 32 33 32 32 31 31 30 30 28 28 28 27 27
MSLP
1013.69 1013.17 1013.08 1013.30 1014.80 1016.69 1019.54 1021.64 1022.89 1023.43 1023.85 1024.93 1024.58 1025.00 1025.12 1026.55 1027.36 1028.67 1028.58 1029.02 1028.66 1027.99 1026.88 1025.62 1023.96 1021.10 1020.50 1020.41 1020.33 1020.35 1020.40 1020.43 1020.43 1020.48 1020.47 1020.41 1020.26 1020.08 1020.05 1020.00 1019.95 1019.88 1019.83 1019.77 1019.79 1019.88 1019.97 1019.96 1019.88
1013.87 1013.49 1013.63 1014.60 1016.53 1019.46 1022.39 1023.58 1024.29 1025.33 1025.31 1025.60 1025.99 1026.65 1026.80 1028.60 1029.20 1029.35 1029.00 1029.17 1028.93 1028.29 1027.30 1026.11 1024.02 1021.39 1020.97 1020.94 1020.96 1020.89 1020.98 1020.96 1020.99 1020.92 1020.82 1020.79 1020.77 1020.72 1020.63 1020.59 1020.48 1020.30 1020.17 1020.18 1020.24 1020.30 1020.34 1020.26 1020.10
1013.82 1014.01 1015.14 1017.12 1019.20 1022.25 1024.41 1025.51 1026.10 1026.45 1026.49 1026.18 1027.15 1028.17 1028.76 1030.10 1030.11 1030.07 1030.14 1029.62 1029.11 1028.26 1027.67 1026.75 1024.79 1022.88 1021.95 1021.84 1021.69 1021.58 1021.66 1021.56 1021.55 1021.54 1021.50 1021.41 1021.32 1021.30 1021.18 1021.08 1020.95 1020.87 1020.81 1020.77 1020.75 1020.77 1020.78 1020.64 1020.47
1014.19 1015.17 1017.50 1019.07 1022.00 1025.63 1026.79 1027.22 1027.15 1027.42 1027.29 1027.19 1027.85 1028.95 1030.06 1030.93 1030.73 1030.57 1030.21 1029.85 1029.28 1028.63 1028.13 1027.27 1025.89 1024.45 1023.32 1022.94 1022.68 1022.41 1022.38 1022.32 1022.27 1022.26 1022.33 1022.31 1022.20 1022.10 1021.99 1021.82 1021.68 1021.58 1021.53 1021.39 1021.20 1021.07 1021.03 1020.93 1020.75
1014.89 1016.35 1019.02 1021.86 1025.28 1027.31 1028.62 1028.92 1028.42 1028.76 1028.42 1028.54 1028.19 1029.72 1030.46 1030.99 1030.86 1030.49 1030.39 1029.90 1029.45 1029.10 1028.61 1028.06 1027.13 1025.92 1024.91 1024.21 1023.83 1023.50 1023.35 1023.29 1023.24 1023.15 1023.18 1023.17 1023.13 1022.99 1022.87 1022.65 1022.52 1022.38 1022.22 1022.01 1021.85 1021.68 1021.38 1021.07 1020.94
1016.12 1017.45 1020.37 1023.49 1026.66 1028.82 1029.60 1030.19 1030.10 1029.79 1029.80 1029.52 1029.46 1029.99 1031.18 1031.34 1030.84 1030.51 1030.41 1030.07 1029.58 1029.30 1029.00 1028.55 1028.10 1027.31 1026.31 1025.68 1025.00 1024.55 1024.32 1024.22 1024.12 1024.06 1023.99 1023.91 1023.80 1023.70 1023.53 1023.34 1023.22 1023.05 1022.85 1022.64 1022.41 1022.18 1021.93 1021.74 1021.56
1017.80 1019.59 1022.64 1025.13 1027.68 1029.54 1030.64 1031.45 1031.79 1031.14 1031.14 1030.91 1030.64 1030.58 1031.50 1031.34 1031.20 1030.74 1030.30 1030.05 1029.92 1029.61 1029.28 1028.81 1028.51 1028.29 1027.83 1027.26 1026.16 1025.60 1025.26 1025.23 1025.02 1024.92 1024.87 1024.81 1024.75 1024.55 1024.46 1024.13 1023.89 1023.65 1023.47 1023.21 1022.94 1022.74 1022.52 1022.30 1022.10
1019.54 1021.20 1024.46 1026.78 1028.68 1030.64 1031.83 1032.25 1032.60 1032.45 1032.37 1031.82 1031.61 1031.87 1032.37 1032.34 1031.72 1031.20 1030.56 1030.42 1030.24 1029.88 1029.24 1029.21 1028.61 1028.73 1028.73 1028.01 1027.57 1026.70 1026.20 1026.19 1025.96 1025.68 1025.66 1025.68 1025.66 1025.49 1025.26 1025.05 1024.80 1024.33 1024.06 1023.77 1023.50 1023.21 1023.03 1022.83 1022.57
1021.01 1023.50 1026.68 1028.55 1029.68 1031.27 1032.07 1032.64 1033.40 1033.90 1033.23 1032.73 1033.16 1033.31 1033.39 1033.01 1032.20 1031.67 1031.38 1031.00 1030.76 1030.23 1029.78 1029.44 1029.37 1028.91 1028.56 1028.46 1028.34 1027.68 1027.07 1026.97 1026.74 1026.58 1026.32 1026.27 1026.49 1026.45 1026.33 1026.12 1025.76 1025.31 1024.98 1024.54 1024.23 1023.81 1023.58 1023.33 1023.11
1023.44 1026.63 1029.00 1030.02 1030.79 1031.51 1032.28 1033.00 1033.69 1034.17 1033.82 1034.12 1034.25 1033.93 1033.83 1033.30 1032.93 1032.56 1032.40 1031.97 1031.20 1030.80 1030.30 1030.03 1029.76 1029.44 1029.05 1028.86 1028.68 1028.06 1027.92 1027.77 1027.74 1027.46 1027.30 1027.33 1027.33 1027.30 1027.15 1026.97 1026.51 1026.18 1025.99 1025.56 1025.08 1024.67 1024.44 1023.92 1023.76
1027.06 1029.04 1030.53 1031.26 1031.75 1032.30 1032.99 1033.78 1034.09 1034.15 1034.62 1035.21 1034.99 1034.89 1034.62 1034.31 1034.02 1033.60 1033.34 1032.93 1032.37 1031.49 1030.79 1030.25 1030.04 1029.72 1029.54 1029.37 1029.25 1029.09 1028.92 1028.66 1028.47 1028.29 1028.21 1028.23 1028.11 1028.01 1027.75 1027.65 1027.43 1027.24 1026.87 1026.46 1026.06 1025.71 1025.38 1025.15 1024.89
1028.80 1030.67 1031.19 1032.05 1032.66 1032.87 1033.54 1034.14 1034.73 1034.64 1035.54 1035.55 1035.45 1035.33 1035.36 1034.88 1035.03 1034.62 1034.38 1033.61 1032.98 1032.20 1031.56 1030.95 1030.56 1030.29 1030.22 1030.34 1030.22 1029.88 1029.41 1029.32 1029.18 1029.43 1029.09 1028.86 1028.80 1028.72 1028.64 1028.63 1028.61 1028.30 1028.04 1027.53 1027.14 1026.80 1026.54 1026.10 1025.66
1030.23 1031.60 1032.49 1032.99 1033.27 1033.66 1034.06 1034.43 1034.60 1035.25 1035.89 1035.98 1035.83 1035.61 1035.46 1035.61 1035.30 1035.28 1034.92 1034.49 1033.88 1032.93 1032.46 1031.80 1031.44 1031.15 1030.99 1030.70 1030.80 1030.39 1030.39 1030.34 1030.08 1030.09 1029.82 1029.82 1029.81 1029.79 1029.61 1029.52 1029.34 1029.28 1028.96 1028.53 1027.99 1027.62 1027.31 1026.81 1026.28
1031.87 1032.18 1032.73 1033.21 1033.44 1033.80 1033.96 1034.33 1034.63 1035.79 1035.92 1035.68 1035.79 1035.91 1035.85 1035.69 1035.74 1035.64 1035.10 1035.05 1034.46 1034.12 1033.43 1032.67 1032.42 1031.84 1031.57 1031.41 1031.38 1031.35 1031.43 1031.13 1030.72 1030.69 1030.52 1030.52 1030.50 1030.55 1030.41 1030.30 1030.18 1030.01 1029.77 1029.30 1028.90 1028.43 1028.12 1027.53 1027.06
1031.69 1032.07 1032.63 1033.00 1033.15 1033.49 1033.49 1034.35 1035.15 1035.65 1035.48 1035.07 1035.50 1035.69 1035.62 1035.48 1035.69 1035.61 1035.62 1035.35 1035.00 1034.89 1033.76 1033.42 1032.79 1032.65 1032.06 1032.11 1032.11 1031.92 1031.64 1031.67 1031.42 1031.49 1031.45 1031.41 1031.25 1031.12 1031.05 1031.00 1030.79 1030.70 1030.46 1029.86 1029.28 1029.03 1028.56 1028.15 1027.45
1031.10 1031.73 1032.16 1032.54 1032.62 1032.75 1033.21 1034.74 1034.86 1035.03 1035.15 1034.84 1034.99 1035.14 1035.01 1035.15 1035.24 1035.27 1035.44 1035.35 1035.24 1034.69 1034.34 1033.89 1033.40 1033.32 1032.63 1032.80 1032.66 1032.12 1032.04 1032.16 1032.19 1032.32 1032.18 1032.02 1031.90 1031.62 1031.52 1031.63 1031.47 1031.11 1030.91 1030.39 1029.89 1029.53 1029.26 1028.77 1028.24
1031.36 1032.20 1032.44 1032.51 1032.51 1032.74 1033.01 1034.31 1034.40 1034.42 1034.77 1034.71 1034.54 1034.48 1034.61 1034.93 1034.88 1034.98 1035.21 1035.22 1035.01 1034.72 1034.44 1034.12 1033.88 1033.57 1033.25 1033.05 1032.77 1032.48 1032.71 1032.73 1032.64 1032.63 1032.56 1032.54 1032.36 1031.97 1031.92 1031.85 1031.83 1031.48 1031.36 1031.02 1030.60 1030.15 1030.03 1029.54 1028.88
1031.96 1032.58 1033.05 1033.17 1033.20 1033.00 1033.30 1033.85 1034.09 1034.28 1034.53 1034.57 1034.34 1034.14 1034.20 1034.46 1034.22 1034.25 1034.50 1034.74 1034.61 1034.44 1034.16 1033.95 1033.75 1033.45 1033.45 1033.34 1032.95 1032.95 1033.07 1033.07 1032.96 1032.88 1032.91 1032.77 1032.55 1032.50 1032.35 1032.22 1032.13 1031.82 1031.65 1031.55 1031.25 1030.80 1030.48 1030.25 1029.58
1031.65 1032.43 1033.11 1033.35 1033.33 1033.51 1033.92 1034.18 1034.16 1034.22 1034.47 1034.33 1034.13 1033.95 1033.98 1034.00 1033.73 1033.78 1033.88 1034.23 1034.34 1034.10 1034.12 1034.10 1033.75 1033.59 1033.57 1033.40 1033.45 1033.57 1033.68 1033.62 1033.49 1033.36 1033.09 1032.94 1032.90 1032.74 1032.70 1032.62 1032.37 1032.27 1032.36 1032.28 1031.79 1031.38 1031.00 1030.25 1029.78
1032.06 1032.46 1033.05 1033.21 1033.43 1033.86 1034.44 1034.29 1034.00 1033.75 1033.70 1033.92 1033.69 1033.68 1033.86 1033.69 1033.69 1033.60 1033.70 1034.00 1033.99 1033.87 1033.90 1033.80 1033.69 1033.70 1033.64 1033.46 1033.74 1033.62 1033.95 1033.77 1033.57 1033.46 1033.23 1033.15 1033.12 1033.02 1032.82 1032.94 1032.98 1032.82 1032.71 1032.58 1032.39 1032.03 1031.80 1031.48 1031.22
1032.90 1032.85 1033.10 1033.41 1033.73 1034.23 1034.82 1034.41 1033.88 1033.42 1033.42 1033.36 1033.34 1033.32 1033.37 1033.24 1033.54 1033.53 1033.69 1033.73 1033.77 1033.74 1033.70 1033.68 1033.54 1033.44 1033.54 1033.64 1033.63 1033.82 1033.64 1033.66 1033.60 1033.64 1033.47 1033.30 1033.22 1033.19 1033.24 1033.24 1033.25 1033.04 1033.08 1033.01 1032.71 1032.63 1032.69 1032.56 1032.18
1033.02 1033.20 1033.40 1033.86 1034.52 1035.22 1035.38 1035.45 1033.44 1032.83 1032.68 1032.52 1032.27 1032.30 1032.41 1032.44 1032.70 1032.91 1033.28 1033.37 1033.47 1033.47 1033.41 1033.58 1033.50 1033.52 1033.62 1033.66 1033.69 1033.66 1033.92 1034.03 1034.06 1034.05 1033.76 1033.65 1033.47 1033.45 1033.36 1033.45 1033.19 1033.15 1033.26 1033.11 1032.94 1032.85 1033.01 1032.81 1032.81
1033.15 1033.18 1033.81 1034.54 1035.35 1036.17 1036.50 1036.52 1032.69 1032.59 1032.25 1031.32 1031.15 1031.18 1031.33 1031.56 1032.03 1032.29 1032.43 1032.53 1032.70 1032.83 1033.13 1033.21 1033.34 1033.34 1033.40 1033.43 1033.48 1033.74 1033.96 1034.02 1034.05 1034.00 1033.92 1033.80 1033.59 1033.33 1033.24 1033.21 1033.16 1033.25 1033.20 1033.10 1033.06 1033.13 1033.02 1032.97 1033.04
1033.33 1033.66 1034.39 1035.44 1036.38 1037.33 1036.71 1036.39 1032.61 1031.53 1029.76 1029.63 1029.90 1030.19 1030.50 1031.01 1031.42 1031.65 1031.81 1032.11 1032.34 1032.52 1032.75 1032.94 1033.02 1033.08 1033.08 1033.29 1033.41 1033.62 1033.81 1033.98 1033.95 1033.79 1033.81 1033.69 1033.48 1033.21 1033.09 1033.10 1033.11 1033.06 1033.11 1033.03 1033.02 1033.04 1033.02 1032.99 1032.92
1034.00 1034.70 1035.78 1037.40 1038.09 1038.08 1036.81 1035.98 1030.82 1028.84 1028.31 1028.07 1028.34 1028.93 1029.62 1030.29 1030.79 1031.19 1031.51 1031.87 1031.99 1032.07 1032.25 1032.44 1032.65 1032.75 1032.70 1032.95 1033.11 1033.25 1033.37 1033.42 1033.59 1033.57 1033.52 1033.47 1033.23 1033.05 1032.83 1032.80 1032.82 1032.91 1032.81 1032.82 1032.76 1032.84 1032.73 1032.69 1032.60
1034.71 1035.60 1036.57 1038.19 1039.34 1038.58 1036.85 1033.78 1028.38 1026.99 1026.67 1026.99 1027.34 1027.74 1028.51 1029.22 1029.74 1030.16 1030.47 1030.93 1031.25 1031.45 1031.76 1031.97 1032.10 1032.17 1032.19 1032.45 1032.58 1032.72 1032.83 1033.07 1033.20 1033.11 1033.08 1033.00 1032.91 1032.75 1032.50 1032.56 1032.45 1032.35 1032.46 1032.51 1032.55 1032.42 1032.34 1032.33 1032.31
1035.28 1036.10 1036.88 1038.69 1040.87 1039.60 1035.01 1031.34 1027.59 1026.38 1026.48 1026.57 1026.82 1027.28 1027.49 1027.85 1028.39 1028.80 1029.49 1030.06 1030.53 1030.85 1031.13 1031.44 1031.71 1031.75 1031.91 1031.89 1032.11 1032.31 1032.42 1032.56 1032.57 1032.42 1032.52 1032.50 1032.39 1032.17 1032.08 1031.96 1032.04 1032.06 1032.13 1032.21 1032.14 1032.11 1031.91 1031.91 1031.78
1035.32 1035.99 1037.18 1038.40 1039.57 1038.62 1034.82 1031.74 1027.66 1026.20 1025.67 1026.01 1026.33 1026.24 1026.43 1026.96 1027.52 1027.87 1028.24 1028.67 1029.23 1029.75 1030.16 1030.62 1030.92 1031.10 1031.08 1031.29 1031.51 1031.63 1031.64 1031.78 1031.79 1031.88 1031.97 1031.91 1031.63 1031.57 1031.48 1031.55 1031.59 1031.62 1031.61 1031.66 1031.67 1031.64 1031.53 1031.49 1031.15
1035.78 1036.18 1037.02 1037.69 1037.87 1037.44 1034.43 1029.47 1025.13 1024.29 1024.00 1024.39 1024.60 1024.85 1025.25 1025.78 1026.14 1026.49 1026.94 1027.43 1028.05 1028.72 1029.27 1029.69 1030.08 1030.31 1030.49 1030.53 1030.71 1030.96 1030.94 1030.95 1031.05 1031.20 1031.05 1031.05 1030.95 1030.93 1030.99 1030.97 1030.94 1030.98 1031.03 1031.11 1031.23 1031.23 1031.11 1030.93 1030.69
1034.52 1034.76 1035.29 1036.56 1036.81 1035.80 1033.47 1026.90 1023.52 1023.19 1023.28 1023.60 1023.62 1023.82 1024.17 1024.54 1025.01 1025.57 1026.19 1026.94 1027.52 1027.79 1028.31 1028.70 1029.09 1029.52 1029.52 1029.54 1029.84 1030.03 1030.16 1030.35 1030.54 1030.52 1030.34 1030.28 1030.34 1030.16 1030.24 1030.31 1030.46 1030.55 1030.71 1030.82 1030.98 1030.81 1030.62 1030.51 1030.30
Wind_Speed
11 9 0 2 4 6 3 4 2 9 4 2 11 5 10 9 6 2 12 11 19 18 19 21 33 9 15 19 19 17 18 17 17 18 18 18 17 17 18 19 18 17 16 15 16 15 14 13 14
5 4 4 2 5 4 3 2 6 7 8 7 7 4 9 6 5 9 9 18 17 17 16 18 30 20 22 22 21 21 21 19 18 18 19 19 19 18 18 19 18 17 16 17 16 15 13 12 12
2 5 4 3 4 5 4 2 4 6 10 4 5 8 5 6 10 8 10 14 16 13 15 17 28 27 22 21 20 21 20 20 21 22 22 22 22 21 20 20 18 17 16 15 14 14 14 14 14
3 4 4 3 7 4 4 6 7 4 3 11 9 9 6 9 4 9 11 13 14 13 14 17 25 26 22 21 20 21 21 21 21 21 22 21 22 23 22 20 20 21 20 19 17 15 14 14 15
4 3 5 6 4 4 7 8 12 9 4 12 4 5 5 6 8 8 10 11 12 10 12 12 21 23 24 21 21 20 21 20 20 21 21 21 21 22 21 21 21 21 18 18 17 17 18 15 16
4 3 3 3 6 3 4 13 5 10 10 6 7 5 5 9 12 9 9 9 9 9 11 10 17 20 23 22 22 22 22 21 21 22 22 22 23 22 22 22 21 20 19 20 19 19 18 18 18
5 4 5 7 7 2 4 4 11 7 10 8 10 5 4 15 14 11 9 10 10 9 9 11 9 15 19 21 22 22 23 22 22 22 22 23 23 24 23 23 21 21 21 21 21 21 20 18 18
3 4 5 5 4 3 3 2 2 11 6 3 8 5 4 8 12 12 8 10 10 11 11 11 9 7 9 11 21 22 23 21 22 22 22 21 21 22 24 23 23 22 23 22 22 22 22 20 20
6 6 5 4 3 5 7 4 3 3 9 12 7 8 5 8 11 11 13 12 10 11 12 11 11 9 7 8 11 15 21 22 22 18 22 16 10 12 15 21 23 24 23 24 24 24 22 21 19
8 6 6 4 3 5 6 4 3 3 8 11 8 12 12 12 11 12 12 13 14 14 11 11 10 10 9 10 9 10 11 11 11 12 13 9 11 11 13 17 24 24 24 24 24 24 22 18 9
8 6 5 10 12 9 5 4 3 6 9 3 5 8 11 12 12 12 12 12 13 12 11 13 10 11 11 9 7 6 6 7 8 13 10 8 8 8 9 8 9 10 17 10 13 13 10 13 10
9 16 11 4 7 5 4 3 5 9 5 4 5 4 6 10 10 11 12 13 13 13 12 12 12 11 10 7 7 7 8 8 8 10 12 9 7 9 9 8 9 9 8 11 10 8 11 11 12
12 10 15 16 15 14 11 11 7 9 5 3 4 6 8 7 7 7 8 11 13 12 13 12 11 10 9 10 7 8 9 8 9 9 12 9 8 9 8 8 8 8 8 9 9 9 10 11 12
10 15 8 8 10 6 7 6 2 3 2 2 3 4 3 3 4 5 9 9 12 12 11 10 11 9 9 9 10 7 7 8 9 9 10 11 8 7 7 7 8 8 8 7 7 8 8 8 10
12 9 7 2 1 3 2 8 6 2 5 3 3 2 1 1 1 1 1 4 6 7 9 8 7 8 9 9 8 7 8 8 8 8 10 10 9 8 8 7 7 7 7 8 7 8 7 8 9
1 1 3 4 1 3 3 2 3 4 4 6 4 3 2 2 1 2 1 1 2 4 7 7 6 6 7 6 5 6 7 6 6 5 5 8 8 8 7 7 7 6 6 7 7 8 8 9 9
8 4 5 3 5 1 3 3 5 6 4 6 5 2 1 3 3 3 3 3 2 0 2 4 4 4 5 5 5 7 7 5 5 5 5 7 8 8 6 6 6 5 6 7 7 7 6 9 10
4 5 4 4 7 7 5 2 5 6 5 7 5 3 2 3 4 5 6 6 4 2 1 1 2 3 3 2 4 4 3 4 4 4 4 6 5 7 5 5 6 6 6 7 8 7 7 6 9
9 7 5 2 3 4 4 2 7 6 5 7 7 6 5 6 4 5 5 4 5 4 3 0 2 3 2 2 1 1 3 2 3 3 5 5 5 5 6 4 5 5 6 6 8 6 7 8 12
8 7 3 1 3 3 3 7 8 7 6 7 7 7 7 4 6 6 6 6 6 5 5 3 1 1 2 2 1 1 1 0 1 2 4 5 5 5 5 5 5 5 5 7 7 8 5 4 9
5 5 2 3 2 3 2 6 6 6 6 7 9 9 7 9 8 7 7 8 7 7 6 5 4 2 1 1 1 1 1 2 3 3 3 4 5 5 5 5 4 4 4 4 4 5 6 4 4
4 3 3 4 4 1 4 6 6 6 9 9 11 10 11 10 7 7 8 8 8 8 7 6 6 5 3 2 2 2 2 1 1 2 2 4 4 4 3 3 4 4 3 4 4 4 2 3 4
3 2 3 2 3 4 2 4 8 3 8 15 16 13 13 12 10 10 10 10 9 7 7 7 6 6 5 4 3 2 2 2 2 2 3 3 3 3 2 3 3 4 3 3 5 5 5 2 2
2 3 5 4 3 4 5 5 8 8 11 5 15 16 15 13 12 11 9 7 8 7 7 7 7 7 6 6 6 6 6 5 3 3 3 3 2 3 3 2 1 2 2 3 3 3 4 3 2
3 4 4 7 6 6 2 2 15 7 8 9 13 16 15 13 13 12 10 9 8 9 8 7 7 8 7 8 7 7 7 6 6 6 4 4 3 2 4 2 2 1 2 3 3 3 4 3 3
2 4 6 6 3 5 4 9 9 6 7 8 8 10 10 14 13 13 14 11 10 9 8 8 8 8 7 7 8 7 7 5 5 6 4 4 4 4 4 5 4 3 2 2 3 2 2 4 4
4 3 3 9 1 4 4 9 11 6 7 7 10 8 13 15 15 16 13 12 10 9 10 10 9 9 8 9 7 7 7 7 7 8 6 5 5 5 6 6 5 5 4 3 3 3 4 4 5
2 5 4 4 1 6 6 7 10 6 11 9 10 13 13 11 13 14 14 15 12 11 9 9 9 11 10 8 7 7 7 7 7 6 8 7 7 6 6 6 6 5 5 4 3 3 4 5 5
3 3 3 4 5 7 3 10 10 11 11 16 17 14 13 14 15 16 15 14 13 10 9 10 10 10 9 8 7 7 7 8 6 6 7 7 6 6 6 6 6 6 5 4 3 5 6 6 7
2 6 6 7 7 4 3 13 5 9 7 9 12 13 10 11 13 13 13 11 10 13 11 12 10 9 11 9 7 9 7 7 7 7 8 6 7 5 6 6 6 5 5 5 5 5 6 7 8
Wind_Direction
324 310 115 35 91 68 114 93 62 1 50 103 42 23 92 50 25 102 340 356 340 330 323 324 326 349 82 77 77 76 73 73 75 73 69 66 61 61 60 56 59 58 58 61 63 56 47 42 35
317 311 27 66 118 142 201 354 85 356 313 142 66 343 43 65 34 325 347 339 336 324 331 331 340 19 67 68 68 68 67 66 70 71 71 70 67 61 57 53 45 43 47 46 47 45 38 36 32
291 5 81 74 83 111 145 21 357 302 30 7 101 44 56 2 346 352 340 332 334 341 340 337 356 12 53 61 65 71 70 67 66 63 59 61 58 54 57 53 51 52 48 42 38 37 30 25 21
38 28 53 51 85 51 48 15 331 338 13 21 113 69 85 43 9 342 347 350 335 354 348 348 5 17 37 55 61 70 70 68 66 69 63 58 55 54 51 45 44 43 38 35 33 31 27 22 18
39 69 86 84 67 107 58 18 36 57 53 29 352 114 78 29 5 354 7 358 343 2 351 357 9 22 33 47 56 63 67 68 67 66 64 63 59 55 51 49 45 43 37 37 34 30 25 23 20
57 87 84 102 92 119 71 22 21 33 28 347 75 88 74 9 2 1 18 356 359 6 4 354 17 21 32 41 51 59 63 64 65 62 60 56 55 53 50 49 46 42 39 37 34 30 27 25 23
82 54 73 87 112 122 50 11 33 36 27 17 321 70 93 14 359 355 12 5 12 10 31 357 57 26 24 32 49 53 58 58 61 59 57 55 53 51 45 44 42 42 37 35 34 30 26 25 24
57 78 87 40 160 63 67 78 20 29 24 287 8 42 39 338 3 5 20 15 22 18 27 19 25 72 42 23 35 49 54 53 52 54 53 50 44 46 43 39 37 39 37 34 31 30 25 22 22
350 64 59 46 94 147 172 102 13 23 61 58 52 51 13 356 17 24 16 18 21 19 23 33 13 21 36 55 48 36 44 47 44 42 46 43 37 36 34 38 37 37 34 33 30 30 26 22 15
46 62 42 3 47 99 76 79 94 90 59 49 33 30 27 26 26 35 21 9 13 21 13 22 27 25 30 41 25 40 40 38 36 35 37 35 39 36 39 31 32 30 26 26 26 26 21 21 10
31 79 108 67 81 82 74 65 35 113 61 38 41 11 19 29 28 29 18 17 1 15 16 16 21 28 32 29 27 31 36 38 37 31 33 33 38 32 32 27 22 19 18 17 15 15 17 12 7
97 53 59 73 40 61 56 69 75 44 71 45 32 17 25 32 17 21 9 360 4 2 18 16 22 28 30 33 33 35 44 40 42 34 33 36 37 36 35 31 22 21 12 14 15 12 6 7 4
61 77 73 86 79 72 84 72 70 58 65 34 17 24 30 23 18 357 4 8 353 9 360 18 17 28 37 42 37 39 41 44 51 42 42 37 36 37 34 32 28 21 12 14 16 12 5 2 360
120 100 100 69 81 90 74 41 31 7 168 65 31 14 358 16 344 332 4 4 3 351 6 7 23 26 41 47 49 47 45 43 50 43 43 40 43 38 34 30 26 21 11 7 11 9 1 2 356
128 95 116 86 109 160 289 32 21 283 305 323 355 316 21 48 289 46 310 4 353 344 358 12 31 29 48 43 55 58 53 45 46 41 37 38 35 38 35 32 27 15 3 8 18 12 10 4 360
64 217 51 9 226 92 242 284 286 244 313 331 321 293 336 349 335 15 185 135 43 14 0 12 43 21 52 54 53 56 50 47 44 33 37 40 41 38 45 36 26 8 12 16 16 15 9 7 2
27 52 18 340 5 15 14 206 224 232 244 288 298 249 249 262 224 210 194 188 201 219 39 40 29 32 40 53 57 59 52 48 47 47 39 33 39 38 45 39 23 13 19 17 12 14 7 8 356
123 96 39 20 341 29 46 98 188 228 233 261 276 240 235 234 219 193 197 215 198 201 206 130 78 33 33 38 43 44 55 48 38 37 45 33 34 34 39 36 25 21 29 21 12 9 7 9 352
110 95 101 314 309 46 12 323 242 246 233 262 259 248 226 232 223 193 188 206 205 186 182 182 68 38 48 41 23 21 22 8 24 28 36 42 34 39 36 33 32 23 30 18 18 356 2 7 359
74 99 66 46 28 66 323 278 251 242 243 223 233 239 229 219 207 211 202 210 208 197 202 195 150 65 35 61 48 89 197 41 37 9 32 35 32 27 40 32 22 23 22 21 22 25 360 359 7
30 97 151 137 48 81 18 284 238 238 225 223 226 225 220 211 211 213 209 207 208 210 211 213 205 183 110 93 92 55 45 24 18 359 0 5 14 21 30 32 30 29 27 22 14 26 25 3 335
65 10 74 103 56 201 76 277 263 226 246 228 232 218 223 214 213 209 212 211 209 216 208 217 207 205 217 178 119 107 135 144 250 260 304 325 345 352 20 29 37 31 18 27 12 24 16 9 17
139 80 52 77 85 65 1 72 266 95 252 238 233 228 223 217 207 213 214 212 214 207 209 212 215 216 223 205 183 169 209 230 251 285 298 301 304 331 335 5 19 15 11 11 19 5 10 26 331
139 85 55 55 65 24 228 130 270 194 214 229 221 221 218 214 215 217 215 206 213 209 207 210 212 226 222 215 216 210 220 237 253 266 274 281 278 296 292 298 282 344 358 358 359 358 355 341 323
64 55 349 358 8 221 166 51 246 242 226 214 208 216 214 209 209 212 209 208 212 209 208 209 210 228 219 218 222 222 230 234 243 247 250 272 283 268 279 267 263 282 320 340 349 341 331 320 303
155 146 155 212 229 263 354 240 251 217 221 213 218 213 203 207 208 210 212 210 211 213 210 207 210 228 223 221 229 224 228 223 229 234 237 244 240 245 254 261 246 271 284 305 314 306 297 293 282
199 182 140 100 65 38 228 279 291 228 256 218 220 211 213 209 205 208 208 207 209 209 212 206 210 226 221 221 222 228 228 226 232 237 235 241 243 245 245 248 248 246 252 253 272 270 282 273 276
181 152 72 360 259 288 281 281 244 250 228 221 223 219 217 209 208 207 204 204 206 206 209 204 207 217 220 218 214 225 225 227 231 231 240 240 247 239 248 249 240 243 243 243 259 277 268 265 278
153 207 67 125 148 186 258 257 217 221 203 207 221 222 211 207 208 207 208 206 203 202 201 208 209 214 224 218 217 221 229 232 229 231 238 234 249 235 240 245 248 241 254 259 271 269 268 269 285
246 217 165 136 233 230 177 264 249 230 224 206 224 223 216 210 207 208 205 197 195 205 206 209 214 210 221 221 209 223 226 229 231 235 243 238 247 248 243 247 244 243 248 267 265 269 280 276 283